Flag for Canada Weather past 2 weeks in Surrey, British Columbia, Canada

Now
66 °F

Mild.


Feels Like: 66 °F
Forecast: 54 / 62 °F
Wind: 6 mph from Southwest

Location: P. Meadows Coastal Station

Current Time: Aug 30, 2015 at 1:26:31 PM

Latest Report: Aug 30, 2015 at 1:00 PM


Visibility: N/A

Pressure: 29.88 "Hg

Humidity: 59%

Dew point: 52 °F

Location of SurreyLocation

Historic Weather in Surrey — Graph

°F

Surrey temperature yesterday

Maximum temperature yesterday: 72 °F (at 12:00 PM)
Minimum temperature yesterday: 59 °F (at 11:00 PM)
Average temperature yesterday: 64 °F

Past Weeks' High & Low Weather Summary

 TemperatureHumidityPressure
High88 °F (Aug 18, 5:00 PM)99% (Aug 22, 2:00 AM)30.27 "Hg (Aug 22, 2:00 AM)
Low50 °F (Aug 25, 5:00 AM)24% (Aug 27, 4:00 PM)29.46 "Hg (Aug 29, 6:00 AM)
Average66 °F68%29.98 "Hg
* Reported Aug 15 12:00 Noon — Aug 30 12:00 Noon, Surrey, Weather by CustomWeather, © 2015

Note: Actual official high and low records may vary slightly from our data, if they occured in-between our weather recording intervals... More about our weather records

Advertising

Surrey weather history for previous 24 hours

 ConditionsComfort  
Time TempWeatherWind HumidityBarometerVisibility
12:00 PM
Sun, Aug 30
64 °FMild.5 mph66%29.87 "HgN/A
11:00 AM62 °FMild.3 mph74%29.86 "HgN/A
10:00 AM60 °FCool.2 mph83%29.85 "HgN/A
9:00 AM58 °FCool.1 mph86%29.83 "HgN/A
8:00 AM57 °FCool.3 mph92%29.80 "HgN/A
7:00 AM58 °FCool.5 mph87%29.78 "HgN/A
6:00 AM58 °FCool.2 mph89%29.76 "HgN/A
5:00 AM58 °FCool.2 mph87%29.74 "HgN/A
4:00 AM59 °FCool.No wind81%29.74 "HgN/A
3:00 AM59 °FCool.2 mph80%29.73 "HgN/A
2:00 AM59 °FCool.3 mph85%29.72 "HgN/A
1:00 AM58 °FCool.3 mph90%29.72 "HgN/A
12:00 AM58 °FCool.2 mph98%29.72 "HgN/A
11:00 PM
Sat, Aug 29
59 °FCool.3 mph92%29.72 "HgN/A
10:00 PM60 °FCool.2 mph92%29.72 "HgN/A
9:00 PM60 °FCool.2 mph90%29.72 "HgN/A
8:00 PM62 °FCool.3 mph84%29.70 "HgN/A
7:00 PM66 °FMild.9 mph69%29.67 "HgN/A
6:00 PM64 °FMild.5 mph79%29.67 "HgN/A
5:00 PM65 °FMild.8 mph78%29.67 "HgN/A
4:00 PM69 °FMild.6 mph65%29.67 "HgN/A
3:00 PM66 °FMild.9 mph78%29.63 "HgN/A
2:00 PM68 °FMild.17 mph60%29.57 "HgN/A
1:00 PM70 °FMild.18 mph55%29.52 "HgN/A
Weather by CustomWeather, © 2015

See weather overviewHow to use our weather pages